Terminal Aerodrome Forecast
Issued by NWS Brownsville, TX

Home | Current Version | Previous Version | Text Only | Print | Product List | Glossary On
Versions: 1 2 3 4 5 6 7 8 9 10 11 12 13 14 15 16 17 18 19 20 21 22
000
FTUS44 KBRO 231700
TAFHRL
TAF
KHRL 231720Z 2318/2418 16015G19KT P6SM FEW035
     FM240100 14014G21KT P6SM SCT030
     FM240400 16016KT P6SM OVC019=

USA.gov is the U.S. government's official web portal to all federal, state and local government web resources and services.